DECAYED

OBJECT A, 53299 (Decayed)

Orbit data source: Space-Track

You're viewing an Uncataloged Satellite

Recently launched and/or uncataloged satellites may have evolving metadata. Metadata may include but not limited to: Owner, Maufacturer, Bus, Motor, and Mission.

OBJECT A, 53299 was a satellite owned by CAS (CN) in LEO that was launched on Wed, 27 Jul 2022 UTC via a LIJIAN-1 launch vehicle from the Jiuquan Satellite Launch Center, China (JSC). Unknown objects in Earth's orbit typically refer to objects detected orbiting the Earth but have not yet been identified or cataloged. These objects could be anything from previously untracked satellites, spent rocket stages, debris from satellite collisions, or even natural meteoroids temporarily captured by Earth's gravity. This object's orbit decayed before it could be identified.

Loading next visibility...
Identifier
53299, 2022-087A
Orbit
Decayed
Country
Flag of CNCN / PRC
Related business
Manufacturer
SECM
Mission
Decayed Civil Technology
Bus & Motor
Unknown
Mass
622 kg wet, 622 kg dry
Launch date (UTC)
2022-07-27 (4 years ago)
Launch vehicle
LIJIAN-1
Launch site
Jiuquan Satellite Launch Center, China (JSC)
Object type
Unknown
Shape & HBR
Box + 2 Pan, 4.0 m
Radar Cross Section
6.005 m², Large (>1 m²)

Expand to show TLE details & history
Last TLE update: 1 year ago

TLE from 1 year ago
0 OBJECT A
1 53299U 22087A   25050.49983608  .13810498  25775-5  12586-3 0  9996
2 53299  97.2683 143.4361 0009917 244.1726 239.5307 16.51387101144268
Epoch: 2025-02-19T11:59Z
TLE epoch observation values (Epoch: 2025-02-19T11:59:45.837Z)
Latitude
55.81802°
Longitude
4.56725°
Altitude
148.357 km
Speed
7.821 km/s
True Right ascension
22h 16m 47s
True Declination
55° 38' 35"
Sunlit
Object was in daylight at epoch
Visualization orbit readout
Latitude
Unknown
Longitude
Unknown
Altitude
Unknown
Speed
Unknown
Apparent Right ascension
Unknown
Apparent Declination
Unknown
Sunlit
N/A
Visualization observer readout
Local Sidereal Time
21:25:03
Azimuth
Unknown
Elevation
Unknown
Doppler factor
Unknown
Orbital elements
Apogee altitude
138.929 km
Perigee altitude
126.016 km
Semi-major axis
6,510.609 km
Eccentricity
0.00099
Inclination
97.2683°
RAAN
143.4361°
Arg. of periapsis
244.1726°
True anomaly
239.43281°
Mean anomaly
239.5307°
Eccentric anomaly
239.48175°
Mean motion
4.13153 °/min
Orbital period
87.13 mins
BSTAR
0.00012586
Loading maneuver chart data...
Computing Atmospheric mass density...
Loading historical data...
Loading historical data...
Loading historical data...
Loading historical data...
Loading historical data...
Loading historical data...
Loading historical data...

Documentation

Showing up to 5 results
|